Toronto Pearson, Ontario

12:35 PM EST on December 18, 2017 (GMT -0500)
Toronto-Pearson International

Weather History for CYYZ - November, 2012

Change the Weather History Date:

Tuesday, November 13, 2012

  Actual Average Record
Temperature  
Mean Temperature 36 °F -  
Max Temperature 39 °F 40 °F 62 °F (2005)
Min Temperature 33 °F 26 °F 19 °F (2013)
Degree Days  
Heating Degree Days 29    
Moisture  
Dew Point 22 °F    
Average Humidity 57    
Maximum Humidity 65    
Minimum Humidity 35    
Precipitation  
Precipitation 0.00 in 0.09 in - ()
Sea Level Pressure  
Sea Level Pressure 30.39 in    
Wind  
Wind Speed 11 mph ()    
Max Wind Speed 17 mph    
Max Gust Speed 24 mph    
Visibility 15.0 miles    
Events Snow    
Averages and records for this station are not official NWS values.
T = Trace of Precipitation, MM = Missing Value Source: Averaged Metar Reports

Daily Weather History Graph

Daily Weather History Graph

Search for Another Location

Airport or City:

Trip Planner

Search our weather history database for the weather conditions in past years. The results will help you decide how hot, cold, wet, or windy it might be!

Date:

Astronomy

Nov. 13, 2012 Rise Set
Actual Time 7:10 AM EST 4:54 PM EST
Civil Twilight 6:39 AM EST 5:25 PM EST
Nautical Twilight 6:05 AM EST 6:00 PM EST
Astronomical Twilight 5:31 AM EST 6:33 PM EST
Moon 6:47 AM EST (11/13) 4:45 PM EST (11/13)
Length of Visible Light 10h 45m
Length of Day
9h 43m
Waning Crescent, 0% of the Moon is Illuminated
Nov 13
Waning Crescent
Nov 13
New
Nov 20
First Quarter
Nov 28
Full
Dec 6
Last Quarter

Hourly Weather History & Observations

Time (EST) Temp. Windchill Dew Point Humidity Pressure Visibility Wind Dir Wind Speed Gust Speed Precip Events Conditions
12:00 AM 37.4 °F 28.2 °F 26.6 °F 65% 30.19 in 15.0 mi West 16.1 mph 24.2 mph N/A   Mostly Cloudy
1:00 AM 37 °F - 26 °F 53% 30.21 in 15 mi West 17.3 mph - -   Partly Cloudy
1:00 AM 37.4 °F 28.9 °F 26.6 °F 65% 30.21 in 15.0 mi West 13.8 mph 23.0 mph N/A   Overcast
2:00 AM 35.6 °F 27.1 °F 24.8 °F 65% 30.21 in 15.0 mi West 12.7 mph 19.6 mph N/A   Overcast
3:00 AM 35.6 °F 26.2 °F 24.8 °F 65% 30.23 in 15.0 mi WSW 15.0 mph - N/A   Overcast
4:00 AM 35.6 °F 26.2 °F 24.8 °F 65% 30.24 in 15.0 mi WSW 15.0 mph - N/A   Overcast
4:48 AM 35.6 °F 27.5 °F - N/A% - 15.0 mi WSW 11.5 mph - N/A Snow Light Snow Grains
5:00 AM 35.6 °F 27.5 °F 24.8 °F 65% 30.26 in 15.0 mi WSW 11.5 mph - N/A Snow Light Snow Grains
6:00 AM 35.6 °F 26.2 °F 24.8 °F 65% 30.29 in 15.0 mi West 15.0 mph - N/A Snow Light Snow Grains
7:00 AM 34 °F - 21 °F 46% 30.33 in 15 mi WNW 17.3 mph - - Snow Light Snow
7:00 AM 33.8 °F 23.5 °F 21.2 °F 60% 30.33 in 15.0 mi WNW 16.1 mph 21.9 mph N/A Snow Light Snow
7:25 AM 33.8 °F 25.3 °F - N/A% - 15.0 mi West 11.5 mph 18.4 mph N/A   Overcast
8:00 AM 33.8 °F 26.4 °F 23.0 °F 65% 30.36 in 15.0 mi West 9.2 mph - N/A   Mostly Cloudy
9:00 AM 35.6 °F 27.1 °F 21.2 °F 56% 30.39 in 15.0 mi WNW 12.7 mph - N/A   Mostly Cloudy
10:00 AM 35.6 °F 27.5 °F 21.2 °F 56% 30.40 in 15.0 mi West 11.5 mph - N/A   Scattered Clouds
11:00 AM 37.4 °F 30.3 °F 23.0 °F 56% 30.43 in 15.0 mi West 10.4 mph - N/A   Mostly Cloudy
12:00 PM 37.4 °F 28.2 °F 19.4 °F 48% 30.42 in 15.0 mi West 16.1 mph - N/A   Mostly Cloudy
1:00 PM 37 °F - 19 °F 35% 30.42 in 15 mi NW 10.4 mph - -   Partly Cloudy
1:00 PM 37.4 °F 30.8 °F 19.4 °F 48% 30.42 in 15.0 mi WNW 9.2 mph - N/A   Mostly Cloudy
2:00 PM 37.4 °F 32.8 °F 19.4 °F 48% 30.43 in 15.0 mi West 5.8 mph - N/A   Mostly Cloudy
3:00 PM 37.4 °F 30.8 °F 21.2 °F 52% 30.43 in 15.0 mi WNW 9.2 mph - N/A   Mostly Cloudy
4:00 PM 37.4 °F 30.3 °F 21.2 °F 52% 30.46 in 15.0 mi WNW 10.4 mph - N/A   Mostly Cloudy
5:00 PM 35.6 °F 29.2 °F 19.4 °F 52% 30.47 in 15.0 mi West 8.1 mph - N/A   Mostly Cloudy
6:00 PM 35.6 °F 28.6 °F 19.4 °F 52% 30.49 in 15.0 mi WNW 9.2 mph - N/A   Mostly Cloudy
7:00 PM 36 °F - 21 °F 41% 30.51 in 15 mi WNW 4.6 mph - -   Mostly Cloudy
7:00 PM 35.6 °F 29.9 °F 21.2 °F 56% 30.51 in 15.0 mi West 6.9 mph - N/A   Mostly Cloudy
8:00 PM 35.6 °F 29.2 °F 23.0 °F 60% 30.51 in 15.0 mi WSW 8.1 mph - N/A   Mostly Cloudy
9:00 PM 35.6 °F 29.2 °F 24.8 °F 65% 30.54 in 15.0 mi WSW 8.1 mph - N/A   Overcast
10:00 PM 33.8 °F 26.4 °F 23.0 °F 65% 30.55 in 15.0 mi West 9.2 mph - N/A   Mostly Cloudy
11:00 PM 33.8 °F 28.6 °F 23.0 °F 65% 30.55 in 15.0 mi SW 5.8 mph - N/A   Mostly Cloudy